Location: Cahas Mountain Overlook
(37.0833°N, 80.1000°W)
Time: 12:02:09
(UTC-05:00)

Courier 1B - Pass Details

Date: 09 December 2023
Orbit: 962 x 1209 km, 28.3° (Epoch: 29 February)

Event Time Altitude Azimuth Distance (km) Brightness Sun altitude
Rises 13:26:36 0° 260° (W) 3,680 10.9 27.6°
Reaches altitude 10° 13:30:48 10° 235° (SW) 2,699 10.8 27.3°
Maximum altitude 13:33:49 14° 207° (SSW) 2,429 11.6 27.1°
Drops below altitude 10° 13:36:49 10° 179° (S) 2,678 11.1 26.9°
Sets 13:40:57 0° 154° (SSE) 3,627 11.0 26.6°
